sat.trackr.live / text

‹ back to catalog

IO-1

NORAD 68498 · 2026-067CL

PAYLOAD ACTIVE UNKNOWN

§ Identity

Operator
Country
UK
Launch date
2026-03-30
Launch site
AFWTR
Launch vehicle
Mass (kg)
RCS (m²)

External: N2YO · Heavens-Above · Gunter

§ Orbital elements

Epoch: 2026-09-19T17:08:34.774368Z

Period
96.52 min
Inclination
97.7646°
Eccentricity
0.0003958
Mean motion
14.91947962 rev/d
Perigee alt
589.1 km
Apogee alt
594.6 km
Semi-major
6,970.0 km
B*
1.0229e-4
RAAN
219.3964°
Arg perigee
97.8426°
Mean anomaly
262.3242°
Rev number
2,581

§ Raw data

IO-11 68498U 26067CL  26262.71429137  .00000980  00000+0  10229-3 0  99912 68498  97.7646 219.3964 0003958  97.8426 262.3242 14.91947962 25810

JSON: /api/v1/satellites/68498 · /tle

For live sub-satellite position, see the globe view (requires WebGL).

§ Visibility from observer

Set your observer location to see the next 7 days of passes ≥ 10°. The values pass through the URL so the page stays shareable.

No JS? Fill the form by hand. The geolocation button needs JavaScript.